User: anonymous   Login
Location: Cactus School
(34.5700°N, 118.0931°W)
Time: 13:32:40
(UTC-08:00)
Language:

Altair - Orbit

View from above orbital plane
View from above orbital plane
View from above satellite
View from above satellite

Ground track
Ground track

The orbit data is extracted from the following two-line orbital elements,

1    50U 60009B   19324.71416661 -.00000103 +00000-0 -15811-3 0  9996
2    50 047.2330 052.2264 0113033 060.8017 300.4025 12.20108729644617
Epoch (UTC): 20 November 2019 17:08:23
Eccentricity: 0.0113033
inclination: 47.2330°
perigee height: 1502 km
apogee height: 1682 km
right ascension of ascending node: 52.2264°
argument of perigee: 60.8017°
revolutions per day: 12.20108729
mean anomaly at epoch: 300.4025°
orbit number at epoch: 64461

The dashed part of the orbit path shows where the satellite is in the earth's shadow,  

DLR